1532077200.5,63997,17.38,74022.0,7.63,6.03,6.03,0,*7D
1532077201.75,63998,17.38,74024.0,7.61,6.57,6.57,0,*70
1532077202.98,63999,17.38,74024.0,7.61,6.91,6.93,0,*73
1532077204.2,64000,17.38,74022.3,7.59,7.15,7.19,0,*78
1532077205.42,64001,17.38,74022.3,7.59,5.77,5.89,0,*74
1532077206.67,64002,17.38,74018.3,7.61,6.69,6.69,0,*7D
1532077207.87,64003,17.38,74022.3,7.59,7.09,7.15,0,*7A
1532077209.05,64004,17.38,74022.5,7.59,7.29,7.37,0,*7F
1532077210.28,64005,17.44,74022.8,7.59,7.15,7.19,0,*7D
1532077211.48,64006,17.38,74022.3,7.61,6.93,6.93,0,*79
1532077212.66,64007,17.38,74022.5,7.59,6.83,6.93,0,*72
1532077213.86,64008,17.38,74020.5,7.59,6.83,6.91,0,*7F
1532077215.09,64009,17.44,74022.5,7.57,6.79,6.91,0,*75
1532077216.29,64010,17.38,74020.3,7.57,6.79,6.79,0,*7B
1532077217.46,64011,17.38,74018.5,7.55,6.75,6.75,0,*78
1532077218.72,64012,17.38,74016.3,7.57,6.91,6.87,0,*7E
1532077219.91,64013,17.38,74018.0,7.57,7.01,6.93,0,*72
1532077221.14,64014,17.44,74022.3,7.57,7.23,7.29,0,*75
1532077222.33,64015,17.38,74018.5,7.55,7.59,7.59,0,*7C
1532077223.58,64016,17.38,74020.5,7.57,7.69,7.73,0,*76
1532077224.84,64017,17.38,74020.5,7.57,7.69,7.73,0,*77
1532077226.01,64018,17.38,74022.5,7.59,7.51,7.51,0,*7D
1532077227.25,64019,17.44,74024.0,7.63,7.61,7.61,0,*75
1532077228.43,64020,17.38,74022.3,7.59,7.59,7.59,0,*76
1532077229.62,64021,17.38,74022.8,7.57,7.33,7.33,0,*79
1532077230.82,64022,17.44,74022.8,7.59,6.91,6.93,0,*76
1532077231.99,64023,17.38,74022.0,7.59,6.79,6.79,0,*75
1532077233.18,64024,17.38,74020.8,7.55,6.21,6.29,0,*76
1532077234.44,64025,17.38,74022.0,7.57,6.47,6.47,0,*7D
1532077235.62,64026,17.38,74016.5,7.55,7.09,7.09,0,*7C
1532077236.82,64027,17.38,74018.8,7.57,7.37,7.37,0,*7F
1532077238.01,64028,17.44,74022.8,7.57,7.37,7.45,0,*75
1532077239.19,64029,17.38,74018.5,7.55,7.09,7.01,0,*7B
1532077240.37,64030,17.38,74018.3,7.55,7.33,7.41,0,*7E
1532077241.55,64031,17.38,74018.3,7.55,7.55,7.55,0,*7A
1532077242.77,64032,17.38,74018.3,7.55,7.23,7.29,0,*73
1532077243.96,64033,17.38,74016.5,7.55,6.29,6.11,0,*73
1532077245.19,64034,17.38,74022.8,7.55,6.39,6.51,0,*71
1532077246.42,64035,17.38,74020.0,7.55,7.11,7.23,0,*7F
1532077247.61,64036,17.38,74018.8,7.55,6.33,6.33,0,*7D
1532077248.83,64037,17.38,74020.0,7.55,6.53,6.61,0,*7D
1532077250.04,64038,17.38,74020.5,7.55,6.83,6.87,0,*77
1532077251.25,64039,17.38,74020.0,7.53,7.29,7.41,0,*7A
1532077252.46,64040,17.38,74016.5,7.53,7.45,7.55,0,*7B
1532077253.69,64041,17.38,74016.5,7.53,7.59,7.65,0,*74
1532077254.89,64042,17.38,74020.0,7.55,7.59,7.65,0,*71
1532077256.15,64043,17.38,74020.0,7.57,7.61,7.69,0,*75
1532077257.41,64044,17.38,74018.3,7.61,7.61,7.61,0,*7F
1532077258.66,64045,17.38,74018.8,7.57,7.15,7.15,0,*7B
1532077259.91,64046,17.38,74020.0,7.57,7.23,7.23,0,*78
1532077261.14,64047,17.38,74022.0,7.57,7.37,7.47,0,*7E
1532077262.4,64048,17.38,74022.0,7.57,7.61,7.61,0,*76
1532077263.65,64049,17.38,74016.5,7.57,7.69,7.69,0,*77
1532077264.87,64050,17.44,74020.3,7.57,7.45,7.47,0,*7D
1532077266.1,64051,17.38,74018.8,7.57,7.47,7.59,0,*71
1532077267.33,64052,17.38,74016.5,7.57,7.61,7.59,0,*76
1532077268.53,64053,17.38,74016.0,7.57,7.55,7.55,0,*7C
1532077269.76,64054,17.38,74016.0,7.57,7.47,7.55,0,*78
1532077271.01,64055,17.38,74018.0,7.61,7.19,7.27,0,*72
1532077272.21,64056,17.38,74014.3,7.59,7.41,7.47,0,*71
1532077273.41,64057,17.38,74018.0,7.59,7.59,7.65,0,*79
1532077274.63,64058,17.38,74016.3,7.59,7.65,7.65,0,*79
1532077275.87,64059,17.38,74012.8,7.61,7.47,7.51,0,*74
1532077277.11,64060,17.38,74016.0,7.59,6.35,6.47,0,*77
1532077278.31,64061,17.38,74014.8,7.59,7.29,7.19,0,*70
1532077279.54,64062,17.38,74016.3,7.59,7.65,7.65,0,*70
1532077280.76,64063,17.38,74012.5,7.57,5.99,6.13,0,*7E
1532077281.96,64064,17.38,74012.8,7.59,6.93,7.15,0,*79
1532077283.17,64065,17.38,74014.8,7.59,6.97,7.15,0,*7C
1532077284.39,64066,17.38,74016.3,7.57,7.01,7.23,0,*7A
1532077285.59,64067,17.44,74022.5,7.59,7.19,7.41,0,*78
1532077286.79,64068,17.38,74018.3,7.59,6.73,6.83,0,*75
1532077288.01,64069,17.38,74014.5,7.59,6.57,6.73,0,*7D
1532077289.19,64070,17.38,74014.3,7.59,6.93,7.09,0,*71
1532077290.37,64071,17.38,74014.3,7.59,7.09,7.29,0,*70
1532077291.57,64072,17.44,74018.3,7.57,7.05,7.33,0,*7A
1532077292.77,64073,17.38,74016.0,7.59,7.15,7.37,0,*70
1532077293.95,64074,17.38,74018.5,7.59,7.09,7.37,0,*7A
1532077295.18,64075,17.44,74022.0,7.61,6.93,7.19,0,*7E
1532077296.4,64076,17.38,74014.8,7.59,6.29,6.51,0,*7A
1532077297.59,64077,17.38,74014.3,7.59,6.91,7.09,0,*74
1532077298.82,64078,17.38,74016.5,7.57,7.11,7.37,0,*71
1532077300.04,64079,17.38,74014.5,7.57,6.91,7.05,0,*78
1532077301.26,64080,17.38,74018.0,7.57,7.01,7.15,0,*77
1532077302.48,64081,17.44,74016.8,7.57,7.15,7.33,0,*77
1532077303.68,64082,17.44,74018.3,7.57,7.05,7.33,0,*75
1532077304.86,64083,17.38,74018.3,7.59,6.79,6.93,0,*7B
1532077306.1,64084,17.44,74022.0,7.57,6.33,6.47,0,*75
1532077307.32,64085,17.38,74018.8,7.57,6.13,6.25,0,*72
1532077308.53,64086,17.38,74014.5,7.59,5.99,6.13,0,*7B
1532077309.71,64087,17.38,74012.3,7.55,5.59,5.71,0,*7D
1532077310.94,64088,17.38,74010.0,7.55,5.73,5.81,0,*75
1532077312.14,64089,17.38,74008.0,7.51,6.13,6.25,0,*78
1532077313.38,64090,17.38,74006.0,7.51,6.35,6.51,0,*77
1532077314.55,64091,17.38,74008.0,7.51,6.79,6.83,0,*71
1532077315.73,64092,17.44,74010.3,7.51,6.83,6.93,0,*76
1532077316.96,64093,17.38,74008.8,7.51,7.15,7.15,0,*76
1532077318.18,64094,17.38,74010.0,7.51,7.15,7.15,0,*71
1532077319.36,64095,17.44,74014.8,7.51,6.93,6.97,0,*74
1532077320.59,64096,17.38,74016.0,7.51,6.61,6.69,0,*7B
1532077321.85,64097,17.38,74014.3,7.53,6.87,6.91,0,*77
1532077323.08,64098,17.38,74014.8,7.51,7.15,7.19,0,*71
1532077324.34,64099,17.38,74012.5,7.53,6.91,6.91,0,*7E
1532077325.51,64100,17.44,74016.0,7.51,6.83,6.83,0,*7D
1532077326.69,64101,17.44,74018.8,7.51,7.05,6.97,0,*76
1532077327.9,64102,17.38,74012.5,7.51,7.19,7.29,0,*7C
1532077329.07,64103,17.44,74018.5,7.51,7.41,7.41,0,*7E
1532077330.25,64104,17.38,74012.3,7.55,7.51,7.55,0,*79
1532077331.44,64105,17.38,74014.3,7.51,7.51,7.51,0,*78
1532077332.61,64106,17.44,74018.3,7.51,7.51,7.55,0,*7F
1532077333.83,64107,17.38,74016.0,7.53,7.55,7.59,0,*74
1532077335.06,64108,17.38,74014.8,7.53,7.09,7.11,0,*7E
1532077336.32,64109,17.38,74014.8,7.53,7.11,7.11,0,*76
1532077337.52,64110,17.38,74016.0,7.53,7.41,7.33,0,*7B
1532077338.72,64111,17.38,74018.3,7.53,7.45,7.45,0,*7F
1532077339.94,64112,17.38,74016.0,7.53,7.29,7.29,0,*7C
1532077341.14,64113,17.38,74016.3,7.53,7.33,7.45,0,*7C
1532077342.35,64114,17.38,74012.3,7.53,7.09,7.09,0,*7A
1532077343.55,64115,17.44,74012.0,7.53,7.33,7.41,0,*7E
1532077344.73,64116,17.38,74006.3,7.55,7.45,7.51,0,*7B
1532077345.92,64117,17.44,74010.3,7.55,7.45,7.51,0,*7A
1532077347.12,64118,17.38,74006.0,7.57,7.55,7.59,0,*7E
1532077348.3,64119,17.38,74012.0,7.55,7.51,7.51,0,*71
1532077349.54,64120,17.38,74014.3,7.57,7.59,7.61,0,*72
1532077350.76,64121,17.44,74016.5,7.57,7.47,7.55,0,*7B
1532077351.96,64122,17.38,74014.3,7.57,7.33,7.37,0,*7F
1532077353.2,64123,17.38,74014.8,7.57,7.55,7.61,0,*7D
1532077354.4,64124,17.38,74012.8,7.57,7.55,7.59,0,*71
1532077355.6,64125,17.38,74010.8,7.59,7.51,7.65,0,*75
1532077356.78,64126,17.38,74012.5,7.59,7.51,7.59,0,*79
1532077357.99,64127,17.44,74016.3,7.59,7.09,7.27,0,*7C
1532077359.19,64128,17.38,74012.5,7.59,7.09,7.15,0,*72
1532077360.42,64129,17.38,74012.5,7.59,7.19,7.27,0,*73
1532077361.62,64130,17.38,74014.8,7.59,7.29,7.47,0,*7E
1532077362.82,64131,17.38,74014.8,7.59,7.37,7.47,0,*70
1532077364.02,64132,17.44,74014.0,7.59,7.15,7.29,0,*7B
1532077365.23,64133,17.38,74012.8,7.61,7.41,7.51,0,*7F
1532077366.43,64134,17.38,74014.3,7.61,7.41,7.51,0,*78
1532077367.66,64135,17.38,74012.5,7.61,7.59,7.65,0,*77
1532077368.89,64136,17.38,74014.3,7.61,7.09,7.15,0,*76
1532077370.13,64137,17.38,74010.0,7.61,7.27,7.29,0,*74
1532077371.36,64138,17.44,74016.8,7.61,7.27,7.37,0,*74
1532077372.59,64139,17.38,74010.8,7.61,7.47,7.51,0,*73
1532077373.8,64140,17.38,74012.3,7.61,7.37,7.37,0,*7A
1532077375.03,64141,17.38,74012.8,7.61,7.47,7.51,0,*7C
1532077376.29,64142,17.38,74012.0,7.61,7.65,7.73,0,*7F
1532077377.54,64143,17.38,74012.0,7.61,7.15,7.19,0,*75
1532077378.73,64144,17.44,74020.3,7.59,7.29,7.29,0,*75
1532077379.96,64145,17.44,74018.0,7.61,7.47,7.59,0,*70
1532077381.2,64146,17.44,74016.8,7.59,6.51,6.51,0,*77
1532077382.37,64147,17.44,74016.3,7.59,6.83,6.83,0,*76
1532077383.54,64148,17.38,74016.0,7.59,7.09,7.09,0,*79
1532077384.75,64149,17.38,74016.0,7.59,7.19,7.29,0,*7B
1532077385.98,64150,17.38,74018.3,7.59,7.15,7.15,0,*70
1532077387.19,64151,17.44,74018.0,7.59,7.19,7.29,0,*72
1532077388.42,64152,17.44,74020.0,7.61,7.47,7.51,0,*7E
1532077389.65,64153,17.38,74016.0,7.61,7.51,7.61,0,*7B
1532077390.86,64154,17.38,74016.0,7.61,7.51,7.59,0,*77
1532077392.04,64155,17.44,74020.8,7.59,7.51,7.51,0,*75
1532077393.26,64156,17.44,74020.5,7.59,7.47,7.47,0,*76
1532077394.48,64157,17.38,74018.8,7.59,7.47,7.47,0,*77
1532077395.67,64158,17.38,74020.0,7.59,7.29,7.29,0,*78
1532077396.92,64159,17.44,74022.8,7.61,7.65,7.65,0,*72
1532077398.14,64160,17.38,74020.3,7.63,7.65,7.65,0,*7A
1532077399.33,64161,17.38,74018.3,7.59,7.29,7.37,0,*7D
1532077400.55,64162,17.38,74022.0,7.63,7.61,7.65,0,*7C
1532077401.81,64163,17.44,74020.5,7.61,7.65,7.77,0,*78
1532077403.03,64164,17.38,74022.5,7.63,7.87,7.91,0,*79
1532077404.26,64165,17.38,74020.0,7.63,7.61,7.61,0,*7F
1532077405.46,64166,17.38,74022.0,7.63,7.55,7.65,0,*7F
1532077406.65,64167,17.44,74022.0,7.63,7.79,7.79,0,*7D
1532077407.85,64168,17.38,74020.3,7.63,7.79,7.91,0,*74
1532077409.02,64169,17.38,74022.0,7.63,5.23,5.37,0,*76
1532077410.2,64170,17.38,74018.0,7.59,6.83,6.93,0,*73
1532077411.4,64171,17.44,74022.0,7.61,7.41,7.51,0,*79
1532077412.66,64172,17.44,74022.0,7.61,7.15,7.19,0,*77
1532077413.87,64173,17.38,74022.0,7.61,6.97,6.97,0,*7A
1532077415.04,64174,17.38,74022.3,7.59,6.83,6.79,0,*73
1532077416.28,64175,17.38,74020.5,7.61,6.03,5.89,0,*7D
1532077417.5,64176,17.44,74020.3,7.59,6.57,6.61,0,*71
1532077418.68,64177,17.38,74020.0,7.59,6.97,6.93,0,*71
1532077419.86,64178,17.38,74020.0,7.59,6.97,7.09,0,*7C
1532077421.04,64179,17.38,74018.8,7.59,6.93,6.93,0,*7B
1532077422.26,64180,17.38,74020.0,7.59,6.61,6.69,0,*75
1532077423.45,64181,17.38,74018.0,7.59,6.69,6.79,0,*7D
1532077424.63,64182,17.38,74018.3,7.55,6.83,6.83,0,*73
1532077425.84,64183,17.38,74016.5,7.55,6.83,6.87,0,*76
1532077427.03,64184,17.38,74018.3,7.57,7.01,6.97,0,*79
1532077428.21,64185,17.44,74016.8,7.55,7.01,7.09,0,*7C
1532077429.44,64186,17.38,74018.5,7.55,7.11,7.11,0,*77
1532077430.64,64187,17.38,74018.5,7.55,6.83,6.87,0,*72
1532077431.83,64188,17.38,74016.0,7.55,6.33,6.29,0,*72
1532077433.01,64189,17.44,74020.3,7.55,6.07,6.11,0,*7F
1532077434.22,64190,17.44,74018.5,7.55,6.17,6.11,0,*76
1532077435.43,64191,17.38,74018.0,7.53,6.33,6.21,0,*74
1532077436.7,64192,17.38,74016.0,7.53,6.47,6.35,0,*71
1532077437.93,64193,17.38,74016.3,7.51,6.39,6.47,0,*7E
1532077439.16,64194,17.38,74018.0,7.51,6.39,6.39,0,*70
1532077440.36,64195,17.38,74018.8,7.51,6.17,6.25,0,*70
1532077441.57,64196,17.38,74020.8,7.47,6.21,6.25,0,*71
1532077442.83,64197,17.44,74024.5,7.49,6.47,6.47,0,*7A
1532077444.03,64198,17.38,74020.8,7.47,6.75,6.75,0,*7B
1532077445.28,64199,17.38,74020.5,7.49,6.57,6.57,0,*74
1532077446.51,64200,17.38,74016.8,7.47,6.33,6.35,0,*7F
1532077447.71,64201,17.38,74016.3,7.47,6.79,6.83,0,*7D
1532077448.9,64202,17.38,74012.8,7.49,7.01,6.93,0,*7F
1532077450.15,64203,17.38,74016.5,7.47,7.11,7.15,0,*7E
1532077451.4,64204,17.44,74018.8,7.47,7.15,7.15,0,*7D
1532077452.6,64205,17.38,74018.3,7.47,7.37,7.33,0,*78
1532077453.8,64206,17.38,74018.5,7.49,7.33,7.45,0,*70
1532077455.03,64207,17.38,74016.5,7.49,7.47,7.51,0,*77
1532077456.23,64208,17.38,74016.0,7.49,7.45,7.45,0,*7F
1532077457.46,64209,17.44,74016.8,7.49,7.27,7.33,0,*7B
1532077458.66,64210,17.38,74018.5,7.49,7.37,7.37,0,*76
1532077459.87,64211,17.38,74018.8,7.49,7.51,7.51,0,*77
1532077461.05,64212,17.44,74016.5,7.51,7.29,7.29,0,*7D
1532077462.23,64213,17.38,74018.8,7.51,7.37,7.41,0,*7D
1532077463.44,64214,17.38,74018.3,7.53,7.59,7.59,0,*79
1532077464.64,64215,17.44,74020.3,7.53,7.41,7.45,0,*7C
1532077465.85,64216,17.38,74018.3,7.53,7.59,7.59,0,*7B
1532077467.12,64217,17.44,74024.5,7.53,7.77,7.69,0,*75
1532077468.35,64218,17.38,74022.5,7.53,7.79,7.87,0,*74
1532077469.58,64219,17.44,74026.0,7.55,7.69,7.77,0,*7D
1532077470.79,64220,17.44,74026.8,7.55,7.79,7.87,0,*79
1532077471.97,64221,17.38,74020.8,7.55,7.51,7.59,0,*71
1532077473.16,64222,17.38,74024.5,7.55,7.59,7.59,0,*7A
1532077474.41,64223,17.44,74024.3,7.57,7.73,7.83,0,*76
1532077475.66,64224,17.38,74024.3,7.57,7.83,7.95,0,*79
1532077476.86,64225,17.38,74024.5,7.57,8.01,8.01,0,*7F
1532077478.06,64226,17.44,74028.3,7.57,8.01,8.05,0,*78
1532077479.23,64227,17.44,74028.5,7.59,7.97,7.97,0,*73
1532077480.41,64228,17.44,74028.0,7.59,7.37,7.37,0,*7C
1532077481.59,64229,17.44,74028.5,7.59,5.59,5.59,0,*7D
1532077482.82,64230,17.38,74024.5,7.59,5.81,5.89,0,*7D
1532077484.06,64231,17.38,74024.5,7.57,6.87,6.53,0,*73
1532077485.27,64232,17.44,74026.8,7.55,6.29,6.39,0,*7A
1532077486.48,64233,17.38,74022.0,7.55,6.73,6.75,0,*7C
1532077487.71,64234,17.38,74026.5,7.55,6.61,6.73,0,*7E
1532077488.94,64235,17.44,74028.5,7.57,6.79,6.91,0,*78
1532077490.17,64236,17.44,74026.8,7.55,6.65,6.65,0,*7F
1532077491.35,64237,17.44,74030.0,7.55,7.45,7.45,0,*7E
1532077492.55,64238,17.44,74026.0,7.55,7.23,7.33,0,*70
1532077493.78,64239,17.44,74026.5,7.55,7.23,7.23,0,*70
1532077494.98,64240,17.38,74024.0,7.57,6.93,6.83,0,*7D
1532077496.17,64241,17.38,74026.8,7.55,7.55,7.59,0,*73
1532077497.37,64242,17.44,74028.5,7.55,7.87,7.97,0,*7D
1532077498.6,64243,17.38,74028.3,7.57,7.91,8.01,0,*79
1532077499.85,64244,17.38,74026.0,7.57,7.83,7.95,0,*7F
1532077501.1,64245,17.38,74028.0,7.57,7.73,7.83,0,*76
1532077502.31,64246,17.44,74030.5,7.59,7.95,7.97,0,*76
1532077503.49,64247,17.44,74028.5,7.59,5.33,5.59,0,*79
1532077504.7,64248,17.38,74028.0,7.57,6.21,6.25,0,*70
1532077505.91,64249,17.44,74026.8,7.57,6.75,6.69,0,*78
1532077507.15,64250,17.38,74028.5,7.55,5.93,5.93,0,*7F
1532077508.36,64251,17.44,74030.5,7.53,5.63,5.63,0,*78
1532077509.54,64252,17.44,74028.0,7.51,4.37,4.53,0,*7B
1532077510.77,64253,17.38,74026.8,7.47,5.73,6.03,0,*7B
1532077512.02,64254,17.38,74024.5,7.49,6.43,6.69,0,*7E
1532077513.25,64255,17.38,74026.3,7.49,6.33,6.69,0,*78
1532077514.46,64256,17.38,74022.5,7.49,5.99,6.21,0,*74
1532077515.72,64257,17.38,74024.3,7.49,6.65,6.91,0,*7E
1532077516.95,64258,17.38,74024.3,7.49,7.15,7.37,0,*7A
1532077518.16,64259,17.44,74026.8,7.49,7.37,7.51,0,*7B
1532077519.39,64260,17.38,74022.5,7.49,7.47,7.59,0,*7E
1532077520.63,64261,17.44,74024.8,7.53,7.59,7.77,0,*77
1532077521.81,64262,17.44,74024.3,7.55,7.45,7.51,0,*7B
1532077523.02,64263,17.44,74024.0,7.55,7.23,7.45,0,*7F
1532077524.2,64264,17.38,74020.3,7.55,7.41,7.51,0,*79
1532077525.38,64265,17.38,74020.3,7.55,7.45,7.51,0,*7C
1532077526.63,64266,17.44,74026.8,7.57,7.47,6.91,0,*72
1532077527.81,64267,17.44,74022.3,7.55,7.41,7.55,0,*7E
1532077529.02,64268,17.44,74024.0,7.55,7.09,7.11,0,*7D
1532077530.2,64269,17.38,74022.8,7.55,7.41,7.55,0,*70
1532077531.41,64270,17.44,74022.8,7.55,7.23,7.41,0,*79
1532077532.63,64271,17.38,74020.0,7.57,7.45,7.47,0,*7C
1532077533.86,64272,17.38,74016.3,7.57,7.55,7.69,0,*72
1532077535.07,64273,17.38,74016.0,7.59,7.09,7.27,0,*7E
1532077536.28,64274,17.38,74020.3,7.57,6.69,6.79,0,*7A
1532077537.51,64275,17.44,74020.0,7.57,7.05,7.15,0,*7B
1532077538.76,64276,17.44,74018.8,7.57,7.47,7.47,0,*79
1532077539.95,64277,17.44,74022.0,7.57,7.01,7.05,0,*7C
1532077541.2,64278,17.44,74018.3,7.57,7.15,7.11,0,*73
1532077542.45,64279,17.38,74018.3,7.57,7.23,7.23,0,*76
1532077543.7,64280,17.44,74022.0,7.57,7.15,7.15,0,*70
1532077544.94,64281,17.38,74022.0,7.55,6.87,6.87,0,*73
1532077546.12,64282,17.44,74020.5,7.55,7.09,7.09,0,*70
1532077547.3,64283,17.44,74018.8,7.55,6.97,7.09,0,*77
1532077548.48,64284,17.44,74022.5,7.55,7.55,7.45,0,*77
1532077549.69,64285,17.44,74022.5,7.57,7.55,7.55,0,*75
1532077550.87,64286,17.44,74022.5,7.55,7.51,7.55,0,*70
1532077552.08,64287,17.44,74022.0,7.55,7.59,7.65,0,*7A
1532077553.31,64288,17.38,74020.0,7.57,7.59,7.69,0,*7B
1532077554.51,64289,17.44,74024.0,7.57,7.55,7.51,0,*7D
1532077555.73,64290,17.44,74020.5,7.55,7.59,7.61,0,*78
1532077556.98,64291,17.44,74020.5,7.57,7.69,7.69,0,*70
1532077558.24,64292,17.44,74020.3,7.61,7.73,7.73,0,*76
1532077559.42,64293,17.44,74022.8,7.59,7.59,7.59,0,*7C
1532077560.62,64294,17.44,74018.5,7.57,7.55,7.59,0,*79
1532077561.83,64295,17.38,74016.3,7.57,7.55,7.55,0,*74
1532077563.03,64296,17.44,74022.0,7.57,7.55,7.55,0,*77
1532077564.21,64297,17.38,74018.0,7.59,7.51,7.51,0,*78
1532077565.47,64298,17.44,74020.5,7.61,7.65,7.65,0,*7C
1532077566.72,64299,17.38,74016.0,7.61,7.65,7.65,0,*7D
1532077567.89,64300,17.44,74020.8,7.59,7.59,7.59,0,*77
1532077569.12,64301,17.44,74016.0,7.61,7.51,7.47,0,*7A
1532077570.32,64302,17.44,74018.3,7.61,6.79,6.83,0,*7B
1532077571.5,64303,17.38,74016.3,7.59,7.51,7.59,0,*7C
1532077572.7,64304,17.44,74018.0,7.59,7.37,7.65,0,*74
1532077573.88,64305,17.38,74020.0,7.59,7.05,6.97,0,*78
1532077575.13,64306,17.44,74022.3,7.57,6.87,6.91,0,*78
1532077576.35,64307,17.44,74024.5,7.57,7.45,7.47,0,*7C
1532077577.53,64308,17.38,74022.3,7.59,7.59,7.59,0,*7F
1532077578.74,64309,17.44,74022.3,7.57,7.79,7.79,0,*70
1532077579.94,64310,17.44,74020.5,7.61,7.97,8.09,0,*75
1532077581.12,64311,17.44,74022.5,7.59,8.09,8.15,0,*7A
1532077582.33,64312,17.44,74018.0,7.61,8.19,8.27,0,*72
1532077583.53,64313,17.44,74016.5,7.61,8.09,8.19,0,*7F
1532077584.74,64314,17.44,74016.0,7.63,7.79,7.87,0,*7A
1532077585.96,64315,17.44,74018.0,7.63,7.61,7.65,0,*7E
1532077587.13,64316,17.44,74018.5,7.63,7.45,7.41,0,*7D
1532077588.3,64317,17.44,74018.5,7.63,7.41,7.33,0,*7D
1532077589.5,64318,17.44,74016.8,7.63,7.55,7.65,0,*74
1532077590.73,64319,17.38,74016.8,7.63,7.69,7.77,0,*79
1532077591.96,64320,17.38,74018.0,7.63,7.77,7.77,0,*7C
1532077593.19,64321,17.44,74022.3,7.63,7.69,7.69,0,*7D
1532077594.4,64322,17.44,74020.8,7.65,7.79,7.79,0,*78
1532077595.6,64323,17.44,74022.5,7.63,7.91,8.01,0,*79
1532077596.8,64324,17.38,74016.3,7.65,8.09,8.09,0,*7E
1532077598.0,64325,17.44,74022.0,7.65,8.01,8.09,0,*77
1532077599.22,64326,17.44,74020.5,7.71,7.83,7.87,0,*7D
1532077600.42,64327,17.44,74026.0,7.67,7.47,7.59,0,*70
1532077601.62,64328,17.44,74020.8,7.67,7.45,7.47,0,*72
1532077602.79,64329,17.44,74022.8,7.67,7.55,7.55,0,*71
1532077603.97,64330,17.44,74024.5,7.67,7.59,7.59,0,*79
1532077605.2,64331,17.44,74022.0,7.67,7.73,7.73,0,*78
1532077606.4,64332,17.44,74022.3,7.67,7.83,7.79,0,*7E
1532077607.58,64333,17.44,74024.0,7.67,7.79,7.79,0,*7A
1532077608.78,64334,17.44,74022.3,7.67,7.95,8.01,0,*7F
1532077609.96,64335,17.44,74024.3,7.71,8.05,8.05,0,*7B
1532077611.14,64336,17.44,74026.8,7.71,8.15,8.15,0,*78
1532077612.36,64337,17.44,74026.5,7.71,7.77,7.87,0,*76
1532077613.59,64338,17.44,74024.3,7.71,7.61,7.69,0,*7E
1532077614.76,64339,17.44,74022.5,7.71,7.41,7.41,0,*77
1532077615.98,64340,17.44,74022.8,7.67,7.15,7.23,0,*7B
1532077617.19,64341,17.44,74026.8,7.71,7.27,7.29,0,*76
1532077618.36,64342,17.44,74024.5,7.67,7.05,7.05,0,*7C
1532077619.57,64343,17.44,74022.3,7.71,7.59,7.61,0,*71
1532077620.79,64344,17.44,74022.0,7.67,7.65,7.73,0,*7D
1532077622.0,64345,17.44,74020.5,7.67,7.59,7.61,0,*70
1532077623.17,64346,17.38,74016.5,7.67,7.33,7.41,0,*7D
1532077624.39,64347,17.44,74020.3,7.67,7.15,7.27,0,*78
1532077625.57,64348,17.44,74018.8,7.71,7.29,7.37,0,*7E
1532077626.77,64349,17.44,74018.5,7.67,7.27,7.33,0,*72
1532077628.0,64350,17.44,74022.5,7.67,6.87,6.91,0,*78
1532077629.18,64351,17.44,74018.8,7.67,7.55,7.59,0,*72
1532077630.4,64352,17.44,74020.8,7.67,7.69,7.65,0,*71
1532077631.62,64353,17.44,74020.0,7.67,7.65,7.65,0,*7C
1532077632.85,64354,17.44,74022.8,7.67,7.73,7.73,0,*7B
1532077634.08,64355,17.44,74020.3,7.67,7.69,7.73,0,*71
1532077635.31,64356,17.44,74018.8,7.71,7.73,7.73,0,*7E
1532077636.56,64357,17.44,74020.8,7.73,7.69,7.73,0,*76
1532077637.78,64358,17.44,74018.3,7.71,7.83,7.83,0,*70
1532077639.0,64359,17.44,74022.8,7.71,7.87,7.87,0,*71
1532077640.17,64360,17.44,74026.5,7.71,8.05,8.09,0,*77
1532077641.34,64361,17.44,74026.3,7.71,8.05,8.15,0,*7B
1532077642.58,64362,17.44,74022.8,7.73,7.83,7.87,0,*7F
1532077643.83,64363,17.44,74024.0,7.73,7.83,7.83,0,*7A
1532077645.02,64364,17.44,74020.5,7.73,7.41,7.45,0,*79
1532077646.25,64365,17.38,74026.5,7.73,7.27,7.29,0,*72
1532077647.46,64366,17.44,74022.3,7.71,7.59,7.69,0,*7E
1532077648.71,64367,17.44,74020.3,7.73,7.77,7.77,0,*7E
1532077649.9,64368,17.44,74026.0,7.73,7.97,7.97,0,*71
1532077651.08,64369,17.44,74022.3,7.75,8.09,8.19,0,*77
1532077652.31,64370,17.44,74022.0,7.75,8.13,8.13,0,*7E
1532077653.48,64371,17.44,74020.5,7.75,8.19,8.23,0,*76
1532077654.68,64372,17.44,74022.3,7.75,8.23,8.29,0,*76
1532077655.92,64373,17.44,74020.5,7.77,8.41,8.45,0,*7B
1532077657.12,64374,17.38,74020.0,7.79,8.37,8.45,0,*73
1532077658.3,64375,17.44,74024.0,7.79,8.27,8.27,0,*77
1532077659.53,64376,17.44,74026.8,7.79,7.23,7.27,0,*70
1532077660.73,64377,17.44,74020.5,7.79,7.27,7.33,0,*70
1532077661.97,64378,17.44,74022.5,7.77,7.79,7.77,0,*7A
1532077663.2,64379,17.44,74016.8,7.79,7.95,7.95,0,*7B
1532077664.42,64380,17.44,74016.8,7.79,7.91,7.91,0,*7D
1532077665.62,64381,17.38,74014.5,7.77,8.01,8.09,0,*7A
1532077666.8,64382,17.44,74020.0,7.79,8.15,8.15,0,*7F
1532077667.99,64383,17.44,74020.3,7.79,8.27,8.27,0,*7E
1532077669.18,64384,17.44,74022.3,7.79,8.45,8.47,0,*7B
1532077670.43,64385,17.44,74022.5,7.83,8.41,8.41,0,*7D
1532077671.69,64386,17.44,74026.3,7.83,8.37,8.41,0,*7F
1532077672.92,64387,17.38,74020.5,7.83,7.95,7.79,0,*7D
1532077674.11,64388,17.44,74026.0,7.83,7.97,7.97,0,*70
1532077675.37,64389,17.44,74030.3,7.83,7.19,7.27,0,*7C
1532077676.6,64390,17.44,74026.5,7.81,7.11,7.15,0,*7F
1532077677.77,64391,17.44,74024.5,7.81,7.37,7.41,0,*7B
1532077679.0,64392,17.44,74024.3,7.81,7.73,7.83,0,*76
1532077680.2,64393,17.38,74018.3,7.83,8.05,8.09,0,*76
1532077681.45,64394,17.44,74022.8,7.83,7.83,7.87,0,*79
1532077682.63,64395,17.38,74022.0,7.81,8.15,8.09,0,*73
1532077683.89,64396,17.44,74020.0,7.83,7.95,7.95,0,*7F
1532077685.15,64397,17.44,74020.5,7.83,7.61,7.69,0,*76
1532077686.37,64398,17.44,74022.8,7.81,7.83,7.87,0,*77
1532077687.57,64399,17.44,74026.3,7.83,8.05,7.97,0,*74
1532077688.8,64400,17.44,74022.3,7.83,7.95,7.97,0,*75
1532077690.01,64401,17.44,74022.8,7.83,8.19,8.19,0,*76
1532077691.19,64402,17.44,74022.3,7.85,7.97,8.01,0,*73
1532077692.41,64403,17.44,74022.0,7.85,7.83,7.83,0,*72
1532077693.67,64404,17.44,74022.0,7.87,7.91,7.91,0,*77
1532077694.9,64405,17.44,74020.0,7.85,7.65,7.73,0,*73
1532077696.09,64406,17.44,74022.8,7.85,7.45,7.51,0,*72
1532077697.29,64407,17.44,74022.5,7.85,7.15,6.07,0,*74
1532077698.53,64408,17.44,74022.5,7.85,6.43,6.43,0,*79
1532077699.78,64409,17.44,74022.0,7.83,6.61,6.73,0,*7D
1532077700.97,64410,17.44,74020.8,7.81,6.91,7.01,0,*7C
1532077702.21,64411,17.44,74022.3,7.81,7.27,7.27,0,*75
1532077703.42,64412,17.44,74020.5,7.81,7.29,7.27,0,*78
1532077704.6,64413,17.44,74022.5,7.81,7.37,7.37,0,*77
1532077705.79,64414,17.38,74016.8,7.79,6.29,6.33,0,*7C
1532077706.98,64415,17.44,74022.8,7.79,7.09,7.23,0,*7E
1532077708.16,64416,17.44,74018.0,7.79,7.37,7.55,0,*71
1532077709.38,64417,17.44,74020.0,7.79,7.69,7.83,0,*70
1532077710.58,64418,17.44,74026.5,7.81,7.79,7.83,0,*79
1532077711.76,64419,17.44,74020.3,7.81,7.41,7.59,0,*74
1532077713.0,64420,17.44,74024.3,7.83,7.27,7.29,0,*7B
1532077714.2,64421,17.44,74022.0,7.81,7.37,7.47,0,*71
1532077715.41,64422,17.44,74022.5,7.81,7.27,7.41,0,*75
1532077716.64,64423,17.44,74022.8,7.81,7.11,7.19,0,*7C
1532077717.84,64424,17.44,74020.5,7.81,7.27,7.37,0,*72
1532077719.07,64425,17.44,74024.8,7.83,7.47,7.59,0,*7F
1532077720.31,64426,17.38,74018.3,7.81,5.93,5.89,0,*7A
1532077721.52,64427,17.44,74022.0,7.81,7.29,7.27,0,*7E
1532077722.7,64428,17.44,74022.0,7.81,8.15,8.15,0,*7F
1532077723.94,64429,17.44,74020.0,7.81,8.41,8.51,0,*7F
1532077725.2,64430,17.44,74020.0,7.83,8.41,8.55,0,*71
1532077726.4,64431,17.44,74018.3,7.85,8.55,8.65,0,*70
1532077727.61,64432,17.44,74012.0,7.85,8.55,8.65,0,*73
1532077728.88,64433,17.44,74014.3,7.87,8.55,8.55,0,*73